HAL992 PHNL-PHOG

Flight info

Callsign HAL992
Flight time 0h 23m
Altitude 15000
Route PALAY3 LNY CAMPS4
Aircraft A332/H-SDE3GHIJ2J3J5M1RVWXY/LB2D1

Departure

Time 2026-04-24 15:17
Airport Daniel K. Inouye International Airport (PHNL)

Arrival

Time 2026-04-24 15:41
Airport Kahului International Airport (PHOG)
Time Latitude Longitude Altitude Speed Heading
2026-04-24 15:05 21.33553 -157.92462 28 ft 0 kts 41°
2026-04-24 15:09 21.33548 -157.92467 28 ft 2 kts 41°
2026-04-24 15:10 21.33533 -157.92481 28 ft 3 kts 41°
2026-04-24 15:10 21.33518 -157.92496 28 ft 3 kts 41°
2026-04-24 15:10 21.33503 -157.92510 28 ft 3 kts 48°
2026-04-24 15:10 21.33491 -157.92527 28 ft 3 kts 66°
2026-04-24 15:11 21.33486 -157.92545 28 ft 3 kts 111°
2026-04-24 15:11 21.33492 -157.92555 28 ft 1 kts 144°
2026-04-24 15:11 21.33505 -157.92565 28 ft 2 kts 144°
2026-04-24 15:11 21.33511 -157.92569 28 ft 0 kts 144°
2026-04-24 15:13 21.33460 -157.92536 28 ft 19 kts 162°
2026-04-24 15:13 21.33296 -157.92548 28 ft 26 kts 187°
2026-04-24 15:14 21.33154 -157.92597 28 ft 17 kts 237°
2026-04-24 15:14 21.33074 -157.92712 28 ft 21 kts 226°
2026-04-24 15:14 21.32959 -157.92838 28 ft 26 kts 225°
2026-04-24 15:14 21.32821 -157.92896 28 ft 23 kts 180°
2026-04-24 15:15 21.32745 -157.92938 28 ft 11 kts 259°
2026-04-24 15:15 21.32743 -157.93119 28 ft 32 kts 270°
2026-04-24 15:15 21.32743 -157.93372 28 ft 35 kts 269°
2026-04-24 15:15 21.32742 -157.93646 28 ft 38 kts 270°
2026-04-24 15:16 21.32742 -157.93937 28 ft 36 kts 270°
2026-04-24 15:16 21.32678 -157.94098 28 ft 25 kts 213°
2026-04-24 15:16 21.32560 -157.94169 28 ft 8 kts 207°
2026-04-24 15:16 21.32527 -157.94148 28 ft 6 kts 104°
2026-04-24 15:17 21.32526 -157.94031 28 ft 41 kts 89°
2026-04-24 15:17 21.32527 -157.93304 29 ft 155 kts 89°
2026-04-24 15:17 21.32511 -157.91875 786 ft 212 kts 89°
2026-04-24 15:17 21.32026 -157.90339 2503 ft 231 kts 128°
2026-04-24 15:18 21.30617 -157.89473 4412 ft 244 kts 157°
2026-04-24 15:18 21.28949 -157.88946 5394 ft 258 kts 162°
2026-04-24 15:18 21.27131 -157.88473 6080 ft 278 kts 165°
2026-04-24 15:18 21.25257 -157.87891 7238 ft 281 kts 156°
2026-04-24 15:19 21.23555 -157.86840 8382 ft 286 kts 138°
2026-04-24 15:19 21.22292 -157.85179 9486 ft 292 kts 117°
2026-04-24 15:19 21.21362 -157.83201 10440 ft 305 kts 112°
2026-04-24 15:19 21.20474 -157.81075 11074 ft 327 kts 111°
2026-04-24 15:20 21.19540 -157.78783 11868 ft 342 kts 111°
2026-04-24 15:20 21.18573 -157.76419 12895 ft 349 kts 112°
2026-04-24 15:20 21.17587 -157.74019 13923 ft 354 kts 111°
2026-04-24 15:20 21.16583 -157.71578 14556 ft 362 kts 111°
2026-04-24 15:21 21.15557 -157.69090 14888 ft 366 kts 111°
2026-04-24 15:21 21.14547 -157.66650 14961 ft 348 kts 111°
2026-04-24 15:21 21.13588 -157.64336 14965 ft 334 kts 111°
2026-04-24 15:21 21.12652 -157.62073 14970 ft 331 kts 111°
2026-04-24 15:22 21.11722 -157.59821 14969 ft 330 kts 111°
2026-04-24 15:22 21.10779 -157.57579 14968 ft 331 kts 114°
2026-04-24 15:22 21.09670 -157.55419 14968 ft 331 kts 118°
2026-04-24 15:23 21.07304 -157.51221 14967 ft 331 kts 119°
2026-04-24 15:23 21.04920 -157.47020 14965 ft 330 kts 119°
2026-04-24 15:23 21.03731 -157.44920 14966 ft 330 kts 119°
2026-04-24 15:24 21.00141 -157.38579 14967 ft 332 kts 119°
2026-04-24 15:25 20.98157 -157.35076 14972 ft 331 kts 119°
2026-04-24 15:25 20.95365 -157.30151 14990 ft 332 kts 119°
2026-04-24 15:26 20.91776 -157.23826 14998 ft 333 kts 119°
2026-04-24 15:27 20.88182 -157.17500 15007 ft 330 kts 120°
2026-04-24 15:27 20.84468 -157.10966 13191 ft 355 kts 120°
2026-04-24 15:28 20.79314 -157.01920 10424 ft 344 kts 120°
2026-04-24 15:29 20.76948 -156.97753 10051 ft 311 kts 118°
2026-04-24 15:30 20.74948 -156.91450 8875 ft 293 kts 104°
2026-04-24 15:31 20.72757 -156.83238 7239 ft 282 kts 105°
2026-04-24 15:32 20.70627 -156.75365 5595 ft 269 kts 106°
2026-04-24 15:33 20.68594 -156.67879 4013 ft 256 kts 105°
2026-04-24 15:33 20.67208 -156.62453 2878 ft 250 kts 95°
2026-04-24 15:34 20.68292 -156.59059 2469 ft 250 kts 44°
2026-04-24 15:35 20.72234 -156.56073 2406 ft 210 kts 36°
2026-04-24 15:35 20.74608 -156.54315 2398 ft 209 kts 37°
2026-04-24 15:35 20.75800 -156.53429 2395 ft 205 kts 37°
2026-04-24 15:36 20.76914 -156.52596 2390 ft 186 kts 36°
2026-04-24 15:36 20.78868 -156.51129 2393 ft 151 kts 36°
2026-04-24 15:36 20.79668 -156.50530 2293 ft 131 kts 34°
2026-04-24 15:37 20.80369 -156.50009 2103 ft 116 kts 36°
2026-04-24 15:37 20.81006 -156.49535 1961 ft 110 kts 36°
2026-04-24 15:37 20.81418 -156.49227 1866 ft 109 kts 34°
2026-04-24 15:37 20.82249 -156.48608 1682 ft 109 kts 36°
2026-04-24 15:38 20.82877 -156.48140 1533 ft 110 kts 33°
2026-04-24 15:38 20.83505 -156.47673 1363 ft 110 kts 34°
2026-04-24 15:38 20.84139 -156.47202 1253 ft 110 kts 34°
2026-04-24 15:38 20.84766 -156.46733 1080 ft 110 kts 34°
2026-04-24 15:39 20.85382 -156.46261 937 ft 110 kts 34°
2026-04-24 15:39 20.86013 -156.45794 793 ft 110 kts 35°
2026-04-24 15:39 20.86647 -156.45333 666 ft 111 kts 37°
2026-04-24 15:39 20.87282 -156.44847 531 ft 109 kts 35°
2026-04-24 15:40 20.87896 -156.44389 352 ft 109 kts 34°
2026-04-24 15:40 20.88517 -156.43929 174 ft 109 kts 35°
2026-04-24 15:40 20.89133 -156.43472 53 ft 105 kts 35°
2026-04-24 15:40 20.89661 -156.43080 46 ft 74 kts 35°
2026-04-24 15:41 20.89908 -156.42896 47 ft 17 kts 34°
2026-04-24 15:41 20.90008 -156.42924 48 ft 17 kts 294°
2026-04-24 15:41 20.89950 -156.43021 47 ft 19 kts 215°
2026-04-24 15:41 20.89831 -156.43110 49 ft 23 kts 215°
2026-04-24 15:42 20.89684 -156.43220 49 ft 28 kts 215°
2026-04-24 15:42 20.89617 -156.43285 49 ft 7 kts 268°
2026-04-24 15:42 20.89654 -156.43352 49 ft 13 kts 305°
2026-04-24 15:42 20.89678 -156.43389 49 ft 0 kts 305°